N9XP-9 Weather Reports


time (UTC)temp
F
wind
direction
speed
knots
gust
knots
rain 1hr
in
rain 24hr
in
rain mn
in
humidity
%
barometer
mb
20260906031559 71 101 0.0 3.5 0.00 0.00 0.00 87 1015.4
20260906030054 71 316 0.0 7.8 0.00 0.00 0.00 87 1015.3
20260906024605 71 352 0.0 5.2 0.00 0.00 0.00 87 1015.4
20260906023053 72 24 0.9 3.5 0.00 0.00 0.00 87 1015.4
20260906021553 72 335 1.7 5.2 0.00 0.00 0.00 87 1015.3
20260906020054 72 19 1.7 6.1 0.00 0.00 0.00 86 1015.2
20260906014556 72 346 0.9 7.0 0.00 0.00 0.00 86 1015.4
20260906013050 72 25 0.0 4.3 0.00 0.00 0.00 86 1015.4
20260906011548 72 341 1.7 7.8 0.00 0.00 0.00 85 1015.3
20260906010046 72 359 2.6 7.8 0.00 0.00 0.00 85 1015.3
20260906004545 72 352 0.9 7.8 0.00 0.00 0.00 86 1015.2
20260906003044 72 39 2.6 10.4 0.00 0.00 0.00 86 1014.9
20260906001541 72 22 1.7 7.8 0.00 0.00 0.00 86 1014.8
20260906000041 73 349 0.9 5.2 0.00 0.00 0.00 85 1014.5
20260905234537 75 358 1.7 7.0 0.00 0.00 0.00 83 1014.4
20260905233040 76 8 0.9 7.0 0.00 0.00 0.00 82 1014.5
20260905231541 77 12 1.7 8.7 0.00 0.00 0.00 79 1014.2
20260905230032 79 81 0.0 4.3 0.00 0.00 0.00 77 1014.0
20260905224531 80 6 1.7 9.6 0.00 0.00 0.00 75 1013.8
20260905223034 81 214 0.0 7.0 0.00 0.00 0.00 74 1013.7
20260905221534 81 2 1.7 7.0 0.00 0.00 0.00 74 1013.5
20260905220029 81 335 0.9 6.1 0.00 0.00 0.00 72 1013.6
20260905214534 81 34 1.7 6.1 0.00 0.00 0.00 73 1013.7
20260905213029 83 10 0.9 6.1 0.00 0.00 0.00 71 1013.6
20260905211534 81 340 1.7 4.3 0.00 0.00 0.00 73 1013.6
20260905210026 81 6 1.7 7.0 0.00 0.00 0.00 74 1013.7
20260905204528 81 2 1.7 7.8 0.00 0.00 0.00 74 1013.8
20260905203025 80 331 0.9 3.5 0.00 0.00 0.00 78 1013.9
20260905201524 79 18 2.6 5.2 0.00 0.00 0.00 79 1014.0
20260905200024 78 342 3.5 7.8 0.00 0.00 0.00 80 1014.0
20260905194623 78 330 2.6 6.1 0.00 0.00 0.00 81 1014.1
20260905193022 78 3 1.7 6.1 0.00 0.00 0.00 81 1014.0
20260905191522 78 23 1.7 7.8 0.00 0.00 0.00 80 1014.2
20260905190021 78 34 1.7 8.7 0.00 0.00 0.00 81 1014.3
20260905184522 79 352 3.5 7.8 0.00 0.00 0.00 80 1014.2
20260905183020 79 351 4.3 8.7 0.00 0.00 0.00 78 1014.3
20260905181519 79 358 3.5 7.0 0.00 0.00 0.00 79 1014.2
20260905180017 80 359 1.7 10.4 0.00 0.00 0.00 79 1014.1
20260905174517 80 7 3.5 7.8 0.00 0.00 0.00 78 1014.1
20260905173016 81 335 1.7 6.1 0.00 0.00 0.00 77 1014.0
20260905171529 81 25 2.6 7.0 0.00 0.00 0.00 78 1014.0
20260905170015 81 18 2.6 7.0 0.00 0.00 0.00 78 1014.1
20260905164522 81 29 0.9 7.0 0.00 0.00 0.00 78 1014.1
20260905163012 82 342 1.7 4.3 0.00 0.00 0.00 76 1014.1
20260905161511 81 353 2.6 5.2 0.00 0.00 0.00 78 1014.1
20260905160020 81 151 0.0 5.2 0.00 0.00 0.00 79 1014.1
20260905154508 80 262 0.0 5.2 0.00 0.00 0.00 82 1013.9
20260905153005 79 356 1.7 4.3 0.00 0.00 0.00 82 1014.0
20260905151503 78 5 0.9 7.8 0.00 0.00 0.00 85 1013.8
20260905150001 78 8 1.7 7.0 0.00 0.00 0.00 84 1013.6
20260905144501 78 1 3.5 7.8 0.00 0.00 0.00 84 1013.4
20260905143100 77 23 2.6 8.7 0.00 0.00 0.00 85 1013.4
20260905141600 76 354 2.6 6.1 0.00 0.00 0.00 88 1013.4
20260905140101 75 8 0.9 7.0 0.00 0.00 0.00 91 1013.3
20260905134557 74 5 0.9 5.2 0.00 0.00 0.00 92 1013.3
20260905133056 74 22 0.9 7.0 0.00 0.00 0.00 93 1013.4
20260905131556 74 16 2.6 6.1 0.00 0.00 0.00 94 1013.7
20260905130052 74 348 0.0 5.2 0.00 0.00 0.00 94 1013.1
20260905124550 74 25 0.0 4.3 0.00 0.00 0.00 94 1012.7
20260905123050 74 6 0.0 3.5 0.00 0.00 0.00 95 1012.6
20260905121546 74 18 0.0 2.6 0.00 0.00 0.00 94 1012.5
20260905120044 74 10 0.0 1.7 0.00 0.00 0.00 94 1012.3
20260905114542 74 356 0.9 4.3 0.00 0.00 0.00 94 1012.1
20260905113045 74 359 0.0 3.5 0.00 0.00 0.00 94 1011.8
20260905111540 74 20 0.0 2.6 0.00 0.00 0.00 93 1011.8
20260905110038 75 13 0.0 0.9 0.00 0.00 0.00 93 1011.5
20260905104536 75 16 0.0 2.6 0.00 0.00 0.00 93 1011.4
20260905103043 76 6 0.0 0.9 0.00 0.00 0.00 94 1011.5
20260905101536 76 37 0.0 0.9 0.00 0.00 0.00 94 1011.5
20260905100039 76 52 0.0 0.9 0.00 0.00 0.00 94 1011.5
20260905094534 76 86 0.0 0.0 0.00 0.00 0.00 94 1011.5
20260905093044 76 88 0.0 0.9 0.00 0.00 0.00 94 1011.4
20260905091534 76 12 0.0 0.0 0.00 0.00 0.00 94 1011.3
20260905090036 75 12 0.0 0.0 0.00 0.00 0.00 94 1011.3
20260905084531 75 9 0.0 0.0 0.00 0.00 0.00 93 1011.4
20260905083030 75 10 0.0 0.0 0.00 0.00 0.00 93 1011.4
20260905081530 75 8 0.0 0.0 0.00 0.00 0.00 93 1011.4
20260905080028 75 10 0.0 0.0 0.00 0.00 0.00 92 1011.3
20260905074526 75 6 0.0 0.0 0.00 0.00 0.00 92 1011.3
20260905073025 76 8 0.0 0.0 0.00 0.00 0.00 91 1011.4
20260905071522 76 11 0.0 0.0 0.00 0.00 0.00 91 1011.7
20260905070028 76 10 0.0 0.0 0.00 0.00 0.00 91 1011.7
20260905064519 77 8 0.0 0.0 0.00 0.00 0.00 90 1011.7
20260905063017 77 8 0.0 0.0 0.00 0.00 0.00 89 1011.8
20260905061515 78 6 0.0 0.0 0.00 0.00 0.00 87 1011.9
20260905060013 78 7 0.0 0.0 0.00 0.00 0.00 86 1012.0
20260905054512 79 7 0.0 0.0 0.00 0.00 0.00 86 1012.1
20260905053012 79 4 0.0 0.9 0.00 0.00 0.00 87 1012.0
20260905051504 80 3 0.0 0.9 0.00 0.00 0.00 86 1011.9
20260905050002 81 115 0.0 0.0 0.00 0.00 0.00 86 1011.7
20260905044600 81 117 0.0 0.0 0.00 0.00 0.00 84 1011.7
20260905043101 82 143 0.0 0.9 0.00 0.00 0.00 83 1011.6
20260905041604 82 128 0.0 0.9 0.00 0.00 0.00 83 1011.6
20260905040101 82 153 0.0 1.7 0.00 0.00 0.00 82 1011.7
20260905034602 82 147 0.0 1.7 0.00 0.00 0.00 82 1011.8
20260905033058 82 155 0.0 0.9 0.00 0.00 0.00 83 1012.0